Terminal Aerodrome Forecast
Issued by NWS

Home | Current Version | Previous Version | Text Only | Print | Product List | Glossary On
Versions: 1 2 3 4 5 6 7 8 9 10 11 12 13 14 15 16 17 18 19 20 21 22 23 24 25 26 27 28 29 30 31 32 33 34 35 36 37 38 39 40
000
FTAK31 PANC 210541
TAFASD
TAF
PASD 210541Z 2106/2206 19012KT 2SM -DZ BR SCT003 BKN015
      TEMPO 2106/2110 1SM -DZ BR BKN003
     FM211600 17008G16KT 4SM -RA BR SCT008 OVC015
     FM220000 18011KT 4SM BR VCSH OVC004
      AMD LTD TO CLD VIS AND WIND=

USA.gov is the U.S. government's official web portal to all federal, state and local government web resources and services.